Flag for Bangladesh Weather past 2 weeks in Dhaka, Bangladesh

Now
81 °F

Rain. Mostly cloudy.


Feels Like: 88 °F
Forecast: 79 / 94 °F
Wind: No wind

Location: Chittagong Patenga

Current Time: Jul 26, 2014 at 3:39:58 AM

Latest Report: Jul 25, 2014 at 11:50 PM


Visibility: 2 mi

Pressure: 29.59 "Hg

Humidity: 94%

Dew point: 79 °F

Location of DhakaLocation

Historic Weather in Dhaka — Graph

°F

Dhaka temperature yesterday

Maximum temperature yesterday: 90 °F (at 11:50 AM)
Minimum temperature yesterday: 79 °F (at 5:50 AM)
Average temperature yesterday: 86 °F

Past Weeks' High & Low Weather Summary

 TemperatureHumidityPressure
High93 °F (Jul 12, 12:50 PM)94% (Jul 11, 5:50 AM)29.62 "Hg (Jul 11, 5:50 AM)
Low77 °F (Jul 22, 5:50 AM)63% (Jul 12, 12:50 PM)29.39 "Hg (Jul 19, 3:50 PM)
Average84 °F83%29.52 "Hg
* Reported Jul 11 5:50 AM — Jul 25 11:50 PM, Dhaka, Weather by CustomWeather, © 2014

Note: Actual official high and low records may vary slightly from our data, if they occured in-between our weather recording intervals... More about our weather records

Advertising

Dhaka weather history for previous 24 hours

 ConditionsComfort  
Time TempWeatherWind HumidityBarometerVisibility
11:50 PM
Jul 25
81 °FRain. Mostly cloudy.No wind94%29.59 "Hg2 mi
9:50 PM84 °FPassing clouds.No wind89%29.59 "Hg4 mi
8:50 PM84 °FPassing clouds.No wind84%29.56 "Hg4 mi
7:50 PM84 °FPassing clouds.3 mph84%29.56 "Hg4 mi
6:50 PM84 °FPassing clouds.5 mph84%29.53 "Hg4 mi
5:50 PM86 °FScattered clouds.6 mph79%29.50 "Hg4 mi
4:50 PM88 °FScattered clouds.7 mph75%29.50 "Hg4 mi
3:50 PM88 °FScattered clouds.7 mph75%29.50 "Hg4 mi
2:50 PM88 °FScattered clouds.9 mph75%29.53 "Hg4 mi
1:50 PM90 °FScattered clouds.8 mph71%29.53 "Hg4 mi
12:50 PM90 °FScattered clouds.8 mph71%29.56 "Hg4 mi
11:50 AM90 °FScattered clouds.6 mph71%29.59 "Hg4 mi
10:50 AM88 °FScattered clouds.2 mph70%29.59 "Hg4 mi
9:50 AM88 °FScattered clouds.9 mph70%29.62 "Hg4 mi
8:50 AM86 °FPassing clouds.8 mph79%29.62 "Hg4 mi
7:50 AM82 °FScattered clouds.3 mph79%29.59 "Hg4 mi
6:50 AM81 °FScattered clouds.No wind89%29.59 "Hg3 mi
5:50 AM79 °FBroken clouds.No wind94%29.56 "Hg3 mi
Weather by CustomWeather, © 2014

See weather overviewHow to use our weather pages